WARNING - Change wsUserSettings.php: $SITE["topfolder"] from : weather28m/ to: ./
Welcome to our new website - Welkom op onze vernieuwde website - Bienvenue sur notre nouveau site web - Willkommen auf unserer neuen Website
Check our progress frequently. Prüfen Sie unsere Fortschritte regelmäßig. Consultez notre progression fréquemment. Komt u straks nog eens terug


Webcam zuid Meer informatie Webcam zuid


Onweer radar Meer informatie blitzortung!


Regen radar Meer informatie rain snow radar


Bezoek onze andere website:

Template documentation
and downloads

And another site


U vindt ons ook hier:

Het Weer Aktueel

UK Metoffice

European Weather Network

WeatherCloud

Weather Underground

AWEKAS

Citizen Weather Observer Program (CWOP)

HAMweather, WeatherForYou, PWS Weather

Wetterpage 24

Roosendaal op internet

VWKWEB

RadioZuidWestFM



Het weer levert geen direct gevaar op.    Er zijn geen waarschuwingen afgegeven.

METAR rapporten vliegvelden

   
EHWO - Bergen op Zoom
Gewijzigd: 16-08-2018 05:55
Helder  
Helder  
   Wind: ZW 14.8 km/h
Wind: ZW 14.8 km/h
Temperatuur: 16°C
Dauwpunt: 14°C
Vochtigheid: 88%
Barometer: 1016 hPa
Bewolking: Helder
Zicht: meer dan 10 km
Bewolking: Helder
EHWO 160355Z AUTO 22008KT 9999 NCD 16/14 Q1016 BLU
EHWO - Woensdrecht
Gewijzigd: 16-08-2018 05:55
Helder  
Helder  
   Wind: ZW 14.8 km/h
Wind: ZW 14.8 km/h
Temperatuur: 16°C
Dauwpunt: 14°C
Vochtigheid: 88%
Barometer: 1016 hPa
Bewolking: Helder
Zicht: meer dan 10 km
Bewolking: Helder
EHWO 160355Z AUTO 22008KT 9999 NCD 16/14 Q1016 BLU
EHWO - Steenbergen
Gewijzigd: 16-08-2018 05:55
Helder  
Helder  
   Wind: ZW 14.8 km/h
Wind: ZW 14.8 km/h
Temperatuur: 16°C
Dauwpunt: 14°C
Vochtigheid: 88%
Barometer: 1016 hPa
Bewolking: Helder
Zicht: meer dan 10 km
Bewolking: Helder
EHWO 160355Z AUTO 22008KT 9999 NCD 16/14 Q1016 BLU
EHWO - Oud-Gastel
Gewijzigd: 16-08-2018 05:55
Helder  
Helder  
   Wind: ZW 14.8 km/h
Wind: ZW 14.8 km/h
Temperatuur: 16°C
Dauwpunt: 14°C
Vochtigheid: 88%
Barometer: 1016 hPa
Bewolking: Helder
Zicht: meer dan 10 km
Bewolking: Helder
EHWO 160355Z AUTO 22008KT 9999 NCD 16/14 Q1016 BLU
EHWO - Oudenbosch
Gewijzigd: 16-08-2018 05:55
Helder  
Helder  
   Wind: ZW 14.8 km/h
Wind: ZW 14.8 km/h
Temperatuur: 16°C
Dauwpunt: 14°C
Vochtigheid: 88%
Barometer: 1016 hPa
Bewolking: Helder
Zicht: meer dan 10 km
Bewolking: Helder
EHWO 160355Z AUTO 22008KT 9999 NCD 16/14 Q1016 BLU
EHWO - Rucphen
Gewijzigd: 16-08-2018 05:55
Helder  
Helder  
   Wind: ZW 14.8 km/h
Wind: ZW 14.8 km/h
Temperatuur: 16°C
Dauwpunt: 14°C
Vochtigheid: 88%
Barometer: 1016 hPa
Bewolking: Helder
Zicht: meer dan 10 km
Bewolking: Helder
EHWO 160355Z AUTO 22008KT 9999 NCD 16/14 Q1016 BLU
EHWO - Bergen op Zoom
Gewijzigd: 16-08-2018 05:55
Helder  
Helder  
   Wind: ZW 14.8 km/h
Wind: ZW 14.8 km/h
Temperatuur: 16°C
Dauwpunt: 14°C
Vochtigheid: 88%
Barometer: 1016 hPa
Bewolking: Helder
Zicht: meer dan 10 km
Bewolking: Helder
EHWO 160355Z AUTO 22008KT 9999 NCD 16/14 Q1016 BLU
EHWO - Fijnaart
Gewijzigd: 16-08-2018 05:55
Helder  
Helder  
   Wind: ZW 14.8 km/h
Wind: ZW 14.8 km/h
Temperatuur: 16°C
Dauwpunt: 14°C
Vochtigheid: 88%
Barometer: 1016 hPa
Bewolking: Helder
Zicht: meer dan 10 km
Bewolking: Helder
EHWO 160355Z AUTO 22008KT 9999 NCD 16/14 Q1016 BLU
EHWO - Ossendrecht
Gewijzigd: 16-08-2018 05:55
Helder  
Helder  
   Wind: ZW 14.8 km/h
Wind: ZW 14.8 km/h
Temperatuur: 16°C
Dauwpunt: 14°C
Vochtigheid: 88%
Barometer: 1016 hPa
Bewolking: Helder
Zicht: meer dan 10 km
Bewolking: Helder
EHWO 160355Z AUTO 22008KT 9999 NCD 16/14 Q1016 BLU

Script ontwikkeld door  Saratoga-weather.org Aangepast voor de template door  Weerstation Leuven

Apparatuur in gebruik:

Weerstation
Davis VP2

Weerprogramma
Weather Display

Weercomputer
Shuttle

Webleverancier
WeservIT

Davis VP2

Weather Display

Shuttle

WeservIT